Simultaneous Nadir Overpasses (SNOs) Predictions

Prediction of SNOs between GOES-16 and LANDSAT-8 Satellite Orbit:

Table of predicted SNOs for the next 14.0 days since TLE Epoch: 5/17/2019
Index Date Time (GOES-16) GOES-16 Lat,Lon LANDSAT-8 Lat,Lon Distance(km) Time Diff (sec)
1 05/18/2019 14:56:35 -0.00, -75.19 -0.90, -70.97 479.26 80
2 05/19/2019 03:17:59 0.00, -75.17 -0.24, -76.16 113.05 80
3 05/21/2019 03:03:09 -0.00, -75.16 0.40, -73.20 222.53 80
4 05/21/2019 15:24:25 0.01, -75.18 0.69, -78.36 362.26 80
5 05/23/2019 15:12:15 0.01, -75.18 0.06, -75.41 26.10 80
6 05/25/2019 15:02:45 0.01, -75.18 -0.58, -72.45 310.69 80
7 05/26/2019 03:24:09 -0.01, -75.17 -0.54, -77.64 280.78 80
8 05/28/2019 03:09:19 -0.01, -75.19 0.10, -74.69 56.88 80
9 05/30/2019 02:57:09 -0.01, -75.21 0.75, -71.74 395.15 80
10 05/30/2019 15:18:24 0.01, -75.23 0.35, -76.89 189.19 80




NCC Satellite Simultaneous Nadir Overpasses (SNOs) Prediction Service
